Skip Page Navigation
NASA JPL Caltech
NASA Logo - Jet Propulsion Laboratory + View the NASA Portal
+ Near-Earth Object (NEO) Program
Search JPL
JPL Home Earth Solar System Stars & Galaxies Technology
JPL Solar System Dynamics
BODIES ORBITS EPHEMERIDES TOOLS PHYSICAL DATA DISCOVERY FAQ SITE MAP
JPL Small-Body Database Browser
Search: [ help ]  
6788 (1991 PH15)
Classification: Main-belt Asteroid          SPK-ID: 2006788
Ephemeris | Orbit Diagram | Orbital Elements | Physical Parameters | Discovery Circumstances ]

[ show orbit diagram ]
Orbital Elements at Epoch 2456400.5 (2013-Apr-18.0) TDB
Reference: MPO240255 (heliocentric ecliptic J2000)
 Element Value Uncertainty (1-sigma)   Units 
e 0.1853886 n/a  
a 2.3522066 n/a AU
q 1.9161343 n/a AU
i 0.68903 n/a deg
node 176.16467 n/a deg
peri 98.92872 n/a deg
M 43.66937 n/a deg
tp 2456240.6597840
(2012-Nov-09.15978400)
n/a JED
period 1317.6850908
3.61
n/a
n/a
d
yr
n 0.27320640 n/a deg/d
Q 2.7882789 n/a AU
  Orbit Determination Parameters
   # obs. used (total)      1013  
   first obs. used      1976-??-??  
   last obs. used      2012-09-03  
   # oppositions      17  
   planetary ephem.      DE403  
   condition code      0  
   fit RMS      0.54  
   data source      MPC:mpn  
   producer      MPCLINUX  

Additional Information
 T_jup = 3.533 

Ephemeris | Orbit Diagram | Orbital Elements | Physical Parameters | Discovery Circumstances ]

Physical Parameter Table
Parameter Symbol Value Units Sigma Reference Notes
absolute magnitude H 14.1 mag n/a PDS3 (MPC 28115)  

6788 (1991 PH15)          Discovered 1991-Aug-07 by Holt, H. E. at Palomar (675)
Reference: DISCOVERY.DBLast Updated: 2003-08-29

Alternate Designations
 1991 PH15 = 1976 GS8 = 1984 SA4 = 1987 KD = 1987 KM5 = 1990 DE4 
Ephemeris | Orbit Diagram | Orbital Elements | Physical Parameters | Discovery Circumstances ]
ABOUT SSD CREDITS/AWARDS PRIVACY/COPYRIGHT GLOSSARY LINKS
FirstGov 2013-May-25 10:51 UT
(server date/time)  
NASA Home Page
Site Manager:   Donald K. Yeomans
Webmaster  Alan B. Chamberlin